This demonstration page uses our WeatherBlox Daily Observations layout. Learn more.

Left ArrowRight Arrow

39.01783, -85.05884

Hourly Observations for December 14, 2017

Temp ( °F °C ) Dew Point ( °F °C ) Humidity (%) Winds ( mph kmh ) Pressure ( in mb ) Visibility ( mi km ) Precip ( " mm )
12:03 am 00:03 Cloudy 39 3.9 29 -1.7 67 67 W 30 48 29.62 1003 10 16 0.00 0.00
12:31 am 00:31 Cloudy 38 3.3 28 -2.2 68 68 WNW 25 41 29.65 1004 10 16 0.00 0.00
12:52 am 00:52 Cloudy 38 3.3 28 -2.2 68 68 W 26 43 29.63 1003 10 16 0.00 0.00
1:28 am 01:28 Cloudy 36 2.2 27 -2.8 70 70 WNW 24 39 29.68 1005 10 16 0.00 0.00
1:52 am 01:52 Cloudy 35 1.7 26 -3.3 70 70 WNW 22 35 29.69 1005 10 16 0.00 0.00
2:52 am 02:52 Cloudy 33 0.6 23 -5 66 66 WNW 17 28 29.75 1007 10 16 0.00 0.00
3:39 am 03:39 Cloudy 32 0 22 -5.6 66 66 NW 18 30 29.80 1009 10 16 0.00 0.00
3:52 am 03:52 Cloudy 32 0 22 -5.6 66 66 NW 13 20 29.79 1009 10 16 0.00 0.00
4:05 am 04:05 Cloudy 31 -0.6 22 -5.6 69 69 NW 22 35 29.80 1009 10 16 0.00 0.00
4:52 am 04:52 Cloudy 31 -0.6 22 -5.6 69 69 NW 13 20 29.81 1010 10 16 0.00 0.00
5:52 am 05:52 Cloudy 31 -0.6 22 -5.6 69 69 NNW 13 20 29.85 1011 10 16 0.00 0.00
6:18 am 06:18 Cloudy 29 -1.7 18 -7.8 63 63 NNW 20 31 29.94 1014 10 16 0.00 0.00
6:52 am 06:52 Cloudy 27 -2.8 18 -7.8 69 69 NNW 13 20 29.91 1013 10 16 0.00 0.00
7:52 am 07:52 Mostly Cloudy 25 -3.9 17 -8.3 72 72 N 13 20 29.94 1014 10 16 0.00 0.00
8:13 am 08:13 Mostly Cloudy 25 -3.9 18 -7.8 75 75 N 9 15 30.00 1016 9 14 0.00 0.00
8:52 am 08:52 Cloudy 25 -3.9 18 -7.8 75 75 N 8 13 29.98 1015 9 14 0.00 0.00
9:52 am 09:52 Cloudy 25 -3.9 17 -8.3 72 72 NNE 10 17 30.00 1016 9 14 0.00 0.00
10:52 am 10:52 Cloudy 27 -2.8 18 -7.8 69 69 NNE 10 17 30.02 1017 8 13 0.00 0.00
11:52 am 11:52 Cloudy 27 -2.8 17 -8.3 66 66 N 10 17 30.04 1017 10 16 0.00 0.00
12:52 pm 12:52 Cloudy 27 -2.8 17 -8.3 66 66 NNE 6 9 30.04 1017 10 16 0.00 0.00
1:52 pm 13:52 Cloudy 27 -2.8 17 -8.3 66 66 N 8 13 30.04 1017 10 16 0.00 0.00
2:20 pm 14:20 Mostly Cloudy 28 -2.2 18 -7.8 66 66 N 6 9 30.09 1019 10 16 0.00 0.00
2:52 pm 14:52 Mostly Cloudy 28 -2.2 17 -8.3 63 63 NNE 10 17 30.04 1017 10 16 0.00 0.00
3:52 pm 15:52 Mostly Cloudy 27 -2.8 17 -8.3 66 66 ENE 6 9 30.05 1018 10 16 0.00 0.00
4:52 pm 16:52 Mostly Cloudy 26 -3.3 16 -8.9 66 66 NW 3 6 30.06 1018 10 16 0.00 0.00
5:52 pm 17:52 Cloudy 25 -3.9 17 -8.3 72 72 N 6 9 30.08 1019 10 16 0.00 0.00
6:52 pm 18:52 Cloudy 25 -3.9 17 -8.3 72 72 N 6 9 30.09 1019 10 16 0.00 0.00
7:52 pm 19:52 Cloudy 25 -3.9 17 -8.3 72 72 NE 7 11 30.09 1019 10 16 0.00 0.00
8:52 pm 20:52 Cloudy 24 -4.4 17 -8.3 75 75 ENE 6 9 30.09 1019 10 16 0.00 0.00
9:52 pm 21:52 Cloudy 25 -3.9 16 -8.9 69 69 NE 7 11 30.10 1019 10 16 0.00 0.00
10:52 pm 22:52 Cloudy 25 -3.9 17 -8.3 72 72 NNE 6 9 30.09 1019 10 16 0.00 0.00
11:52 pm 23:52 Cloudy 25 -3.9 17 -8.3 72 72 NE 3 6 30.08 1019 10 16 0.00 0.00

Powered by AerisWeather